User: anonymous   Login
Location: Unspecified
(0.0000°N, 0.0000°E)
Time: 19:26:30
(UTC+00:00)
Language:

Arsene - Orbit

View from above orbital plane
View from above orbital plane
View from above satellite
View from above satellite

Ground track
Ground track

The orbit data is extracted from the following two-line orbital elements,

1 22654U 93031B   18168.65867043 -.00000124  00000-0  00000+0 0  9995
2 22654   0.8387 246.7437 2936809  22.3139  42.3908  1.42205165125850
Epoch (UTC): 17 June 2018 15:48:29
Eccentricity: 0.2936809
inclination: 0.8387°
perigee height: 17215 km
apogee height: 36835 km
right ascension of ascending node: 246.7437°
argument of perigee: 22.3139°
revolutions per day: 1.42205165
mean anomaly at epoch: 42.3908°
orbit number at epoch: 12585

The dashed part of the orbit path shows where the satellite is in the earth's shadow,  

DLR